sat.trackr.live / text

‹ back to catalog

STARLINK-36456

NORAD 67357 · 2026-003Z

PAYLOAD ACTIVE UNKNOWN

§ Identity

Operator
Country
US
Launch date
2026-01-09
Launch site
AFETR
Launch vehicle
Mass (kg)
RCS (m²)

Purposes: comms

External: N2YO · Heavens-Above · Gunter

§ Orbital elements

Epoch: 2026-05-25T01:26:53.470176Z

Period
94.27 min
Inclination
42.9996°
Eccentricity
0.0001126
Mean motion
15.27592788 rev/d
Perigee alt
482.2 km
Apogee alt
483.8 km
Semi-major
6,861.1 km
B*
5.0992e-4
RAAN
155.7772°
Arg perigee
275.8332°
Mean anomaly
84.2391°
Rev number
2,050

§ Raw data

STARLINK-364561 67357U 26003Z   26145.06034109  .00013801  00000+0  50992-3 0  99902 67357  42.9996 155.7772 0001126 275.8332  84.2391 15.27592788 20501

JSON: /api/v1/satellites/67357 · /tle

For live sub-satellite position, see the globe view (requires WebGL).

§ Visibility from observer

Set your observer location to see the next 7 days of passes ≥ 10°. The values pass through the URL so the page stays shareable.

No JS? Fill the form by hand. The geolocation button needs JavaScript.